ON3FV Weather Reports


Display with metric or nautical units.
time (UTC)temp
F
wind
direction
speed
MPH
gust
MPH
rain 1hr
in
rain 24hr
in
rain mn
in
humidity
%
barometer
mb
20260506220333 50 0.0 0.0 0.00 0.00 0.00 85 1011.9
20260506215831 50 0.0 0.0 0.00 0.00 0.00 85 1011.9
20260506215331 50 0.0 0.0 0.00 0.00 0.00 85 1011.9
20260506214850 50 0.0 0.0 0.00 0.00 0.00 85 1011.9
20260506214329 51 0.0 0.0 0.00 0.00 0.00 85 1011.9
20260506213827 51 0.0 0.0 0.00 0.00 0.00 85 1011.9
20260506213327 51 0.0 0.0 0.00 0.00 0.00 85 1011.8
20260506212925 51 0.0 0.0 0.00 0.00 0.00 85 1011.8
20260506212325 51 0.0 0.0 0.00 0.00 0.00 84 1011.7
20260506211824 51 0.0 0.0 0.00 0.00 0.00 84 1011.7
20260506211322 51 0.0 0.0 0.00 0.00 0.00 84 1011.6
20260506210821 51 0.0 0.0 0.00 0.00 0.00 84 1011.6
20260506210320 52 0.0 0.0 0.00 0.00 0.00 83 1011.6
20260506205919 52 0.0 0.0 0.00 0.00 0.00 83 1011.6
20260506205319 52 0.0 0.0 0.00 0.00 0.00 83 1011.5
20260506204817 52 0.0 0.0 0.00 0.00 0.00 83 1011.5
20260506204317 52 0.0 0.0 0.00 0.00 0.00 83 1011.4
20260506203816 52 0.0 0.0 0.00 0.00 0.00 83 1011.4
20260506203315 52 0.0 0.0 0.00 0.00 0.00 82 1011.3
20260506202813 52 0.0 0.0 0.00 0.00 0.00 82 1011.3
20260506202312 53 0.0 0.0 0.00 0.00 0.00 82 1011.2
20260506201812 53 0.0 0.0 0.00 0.00 0.00 82 1011.2
20260506201310 53 0.0 0.0 0.00 0.00 0.00 81 1011.2
20260506200810 53 0.0 0.0 0.00 0.00 0.00 81 1011.2
20260506200308 53 0.0 0.0 0.00 0.00 0.00 80 1011.1
20260506195808 53 0.0 0.0 0.00 0.00 0.00 80 1011.1
20260506195327 53 0.0 0.0 0.00 0.00 0.00 79 1011.0
20260506194805 53 0.0 0.0 0.00 0.00 0.00 79 1011.0
20260506194304 54 0.0 0.0 0.00 0.00 0.00 79 1010.9
20260506193804 54 0.0 0.0 0.00 0.00 0.00 79 1010.9
20260506193303 54 0.0 0.0 0.00 0.00 0.00 78 1010.8
20260506192822 54 0.0 0.0 0.00 0.00 0.00 78 1010.8
20260506192305 55 0.0 0.0 0.00 0.00 0.00 77 1010.7
20260506191800 55 0.0 0.0 0.00 0.00 0.00 77 1010.7
20260506191258 55 0.0 0.0 0.00 0.00 0.00 77 1010.6
20260506190758 55 0.0 0.0 0.00 0.00 0.00 77 1010.6
20260506190256 56 0.0 0.0 0.00 0.00 0.00 76 1010.5
20260506185816 56 0.0 0.0 0.00 0.00 0.00 76 1010.5
20260506185254 56 0.0 0.0 0.00 0.00 0.00 75 1010.4
20260506184754 56 0.0 0.0 0.00 0.00 0.00 75 1010.4
20260506184332 56 0.0 0.0 0.00 0.00 0.00 75 1010.4
20260506183752 56 0.0 0.0 0.00 0.00 0.00 75 1010.4
20260506183250 57 0.0 0.0 0.00 0.00 0.00 75 1010.3
20260506182750 57 0.0 0.0 0.00 0.00 0.00 75 1010.3
20260506182248 57 0.0 0.0 0.00 0.00 0.00 75 1010.2
20260506181748 57 0.0 0.0 0.00 0.00 0.00 75 1010.2
20260506181246 58 0.0 0.0 0.00 0.00 0.00 74 1010.0
20260506180746 58 0.0 0.0 0.00 0.00 0.00 74 1010.0
20260506180244 58 0.0 0.0 0.00 0.00 0.00 74 1009.9
20260506175744 58 0.0 0.0 0.00 0.00 0.00 74 1009.9
20260506175242 58 0.0 0.0 0.00 0.00 0.00 74 1009.7
20260506174742 58 0.0 0.0 0.00 0.00 0.00 74 1009.7
20260506174240 58 0.0 0.0 0.00 0.00 0.00 74 1009.6
20260506173739 58 0.0 0.0 0.00 0.00 0.00 74 1009.6
20260506173259 58 0.0 0.0 0.00 0.00 0.00 74 1009.5
20260506172737 58 0.0 0.0 0.00 0.00 0.00 74 1009.5
20260506172237 58 0.0 0.0 0.00 0.00 0.00 72 1009.4
20260506171735 58 0.0 0.0 0.00 0.00 0.00 72 1009.4
20260506171235 58 0.0 0.0 0.00 0.00 0.00 73 1009.4
20260506170734 58 0.0 0.0 0.00 0.00 0.00 73 1009.4
20260506170232 59 0.0 0.0 0.00 0.00 0.00 73 1009.3
20260506165731 59 0.0 0.0 0.00 0.00 0.00 73 1009.3
20260506165330 60 0.0 0.0 0.00 0.00 0.00 73 1009.3
20260506164730 60 0.0 0.0 0.00 0.00 0.00 73 1009.3
20260506164228 60 0.0 0.0 0.00 0.00 0.00 73 1009.2
20260506163748 60 0.0 0.0 0.00 0.00 0.00 73 1009.2
20260506163247 60 0.0 0.0 0.00 0.00 0.00 73 1009.2
20260506162725 60 0.0 0.0 0.00 0.00 0.00 73 1009.2
20260506162225 61 0.0 0.0 0.00 0.00 0.00 73 1009.1
20260506161723 61 0.0 0.0 0.00 0.00 0.00 73 1009.1
20260506161223 61 0.0 0.0 0.00 0.00 0.00 75 1009.1
20260506160721 61 0.0 0.0 0.00 0.00 0.00 75 1009.1
20260506160220 61 0.0 0.0 0.00 0.00 0.00 75 1009.0
20260506155720 61 0.0 0.0 0.00 0.00 0.00 75 1009.0
20260506155218 60 0.0 0.0 0.00 0.00 0.00 75 1009.0
20260506154718 60 0.0 0.0 0.00 0.00 0.00 75 1009.0
20260506154216 60 0.0 0.0 0.00 0.00 0.00 78 1009.1
20260506153716 60 0.0 0.0 0.00 0.00 0.00 78 1009.1
20260506153215 59 0.0 0.0 0.00 0.00 0.00 76 1009.1
20260506152713 59 0.0 0.0 0.00 0.00 0.00 76 1009.1
20260506152213 59 0.0 0.0 0.00 0.00 0.00 77 1009.0
20260506151731 59 0.0 0.0 0.00 0.00 0.00 77 1009.0
20260506151211 58 0.0 0.0 0.00 0.00 0.00 77 1009.0
20260506150709 58 0.0 0.0 0.00 0.00 0.00 77 1009.0
20260506150209 58 0.0 0.0 0.00 0.00 0.00 75 1009.1
20260506145708 58 0.0 0.0 0.00 0.00 0.00 75 1009.1
20260506145227 58 0.0 0.0 0.00 0.00 0.00 78 1009.1
20260506144705 58 0.0 0.0 0.00 0.00 0.00 78 1009.1
20260506144225 58 0.0 0.0 0.00 0.00 0.00 79 1009.0
20260506143704 58 0.0 0.0 0.00 0.00 0.00 79 1009.0
20260506143204 58 0.0 0.0 0.00 0.00 0.00 79 1009.0
20260506142721 58 0.0 0.0 0.00 0.00 0.00 79 1009.0
20260506142201 58 0.0 0.0 0.00 0.00 0.00 79 1009.1
20260506141720 58 0.0 0.0 0.00 0.00 0.00 79 1009.1
20260506141158 58 0.0 0.0 0.00 0.00 0.00 80 1009.1
20260506140718 58 0.0 0.0 0.00 0.00 0.00 80 1009.1
20260506140156 58 0.0 0.0 0.00 0.00 0.00 80 1009.1
20260506135716 58 0.0 0.0 0.00 0.00 0.00 80 1009.1
20260506135214 58 0.0 0.0 0.00 0.00 0.00 79 1009.2
20260506134654 58 0.0 0.0 0.00 0.00 0.00 79 1009.2
20260506134152 58 0.0 0.0 0.00 0.00 0.00 79 1009.2
20260506133712 58 0.0 0.0 0.00 0.00 0.00 80 1009.1
20260506133150 58 0.0 0.0 0.00 0.00 0.00 80 1009.1
20260506132650 58 0.0 0.0 0.00 0.00 0.00 81 1009.1
20260506132148 58 0.0 0.0 0.00 0.00 0.00 81 1009.1
20260506131647 58 0.0 0.0 0.00 0.00 0.00 80 1009.1
20260506131147 58 0.0 0.0 0.00 0.00 0.00 80 1009.1
20260506130645 58 0.0 0.0 0.00 0.00 0.00 81 1009.0
20260506130205 58 0.0 0.0 0.00 0.00 0.00 81 1009.0
20260506125643 57 0.0 0.0 0.00 0.00 0.00 81 1008.9
20260506125203 57 0.0 0.0 0.00 0.00 0.00 81 1008.9
20260506124641 57 0.0 0.0 0.00 0.00 0.00 81 1008.9
20260506124201 57 0.0 0.0 0.00 0.00 0.00 81 1008.9
20260506123639 57 0.0 0.0 0.00 0.00 0.00 81 1008.9
20260506123146 57 0.0 0.0 0.00 0.00 0.00 81 1008.9
20260506122637 57 0.0 0.0 0.00 0.00 0.00 82 1008.9
20260506122137 57 0.0 0.0 0.00 0.00 0.00 82 1008.9
20260506121635 57 0.0 0.0 0.00 0.00 0.00 81 1008.9
20260506121135 57 0.0 0.0 0.00 0.00 0.00 81 1008.9
20260506120633 57 0.0 0.0 0.00 0.00 0.00 83 1008.9
20260506120133 57 0.0 0.0 0.00 0.00 0.00 83 1008.9
20260506115631 56 0.0 0.0 0.00 0.00 0.00 83 1008.9
20260506115131 56 0.0 0.0 0.00 0.00 0.00 83 1008.9
20260506114630 56 0.0 0.0 0.00 0.00 0.00 84 1009.0
20260506114129 56 0.0 0.0 0.00 0.00 0.00 84 1009.0
20260506113628 55 0.0 0.0 0.00 0.00 0.00 85 1009.0
20260506113126 55 0.0 0.0 0.00 0.00 0.00 85 1009.0
20260506112626 55 0.0 0.0 0.00 0.00 0.00 85 1009.0
20260506112124 55 0.0 0.0 0.00 0.00 0.00 85 1009.0
20260506111624 54 0.0 0.0 0.00 0.00 0.00 85 1009.1
20260506111122 54 0.0 0.0 0.00 0.00 0.00 85 1009.1
20260506110622 54 0.0 0.0 0.00 0.00 0.00 86 1009.1
20260506110121 54 0.0 0.0 0.00 0.00 0.00 86 1009.1
20260506105620 53 0.0 0.0 0.00 0.00 0.00 86 1009.1
20260506105119 53 0.0 0.0 0.00 0.00 0.00 86 1009.1
20260506104618 53 0.0 0.0 0.00 0.00 0.00 86 1009.1
20260506104117 53 0.0 0.0 0.00 0.00 0.00 86 1009.1
20260506103636 53 0.0 0.0 0.00 0.00 0.00 86 1009.1
20260506103134 53 0.0 0.0 0.00 0.00 0.00 86 1009.1
20260506102613 52 0.0 0.0 0.00 0.00 0.00 86 1009.1
20260506102112 52 0.0 0.0 0.00 0.00 0.00 86 1009.1
20260506101612 52 0.0 0.0 0.00 0.00 0.00 86 1009.1
20260506101110 52 0.0 0.0 0.00 0.00 0.00 86 1009.1
20260506100610 52 0.0 0.0 0.00 0.00 0.00 86 1009.0
20260506100109 52 0.0 0.0 0.00 0.00 0.00 86 1009.0
20260506095607 52 0.0 0.0 0.00 0.00 0.00 86 1009.0
20260506095127 52 0.0 0.0 0.00 0.00 0.00 86 1009.0
20260506094606 52 0.0 0.0 0.00 0.00 0.00 86 1009.0
20260506094105 52 0.0 0.0 0.00 0.00 0.00 86 1009.0
20260506093603 52 0.0 0.0 0.00 0.00 0.00 86 1008.9
20260506093102 52 0.0 0.0 0.00 0.00 0.00 86 1008.9
20260506092602 52 0.0 0.0 0.00 0.00 0.00 86 1008.9
20260506092120 52 0.0 0.0 0.00 0.00 0.00 86 1008.9
20260506091600 52 0.0 0.0 0.00 0.00 0.00 86 1008.7
20260506091059 52 0.0 0.0 0.00 0.00 0.00 86 1008.7
20260506090557 52 0.0 0.0 0.00 0.00 0.00 86 1008.7
20260506090117 52 0.0 0.0 0.00 0.00 0.00 86 1008.7
20260506085615 52 0.0 0.0 0.00 0.00 0.00 86 1008.6
20260506085054 52 0.0 0.0 0.00 0.00 0.00 86 1008.6
20260506084553 52 0.0 0.0 0.00 0.00 0.00 85 1008.6
20260506084052 52 0.0 0.0 0.00 0.00 0.00 85 1008.6
20260506083552 52 0.0 0.0 0.00 0.00 0.00 84 1008.4
20260506083050 52 0.0 0.0 0.00 0.00 0.00 84 1008.4
20260506082550 53 0.0 0.0 0.00 0.00 0.00 84 1008.3
20260506082048 53 0.0 0.0 0.00 0.00 0.00 84 1008.3
20260506081608 53 0.0 0.0 0.00 0.00 0.00 84 1008.3
20260506081046 53 0.0 0.0 0.00 0.00 0.00 84 1008.3
20260506080546 53 0.0 0.0 0.00 0.00 0.00 84 1008.2
20260506073039 53 0.0 0.0 0.00 0.00 0.00 85 1008.1
20260506072537 53 0.0 0.0 0.00 0.00 0.00 85 1008.0
20260506072037 53 0.0 0.0 0.00 0.00 0.00 85 1008.0
20260506071535 53 0.0 0.0 0.00 0.00 0.00 85 1008.0
20260506071034 53 0.0 0.0 0.00 0.00 0.00 85 1008.0
20260506070534 52 0.0 0.0 0.00 0.00 0.00 86 1008.0
20260506062025 50 0.0 0.0 0.00 0.00 0.00 86 1007.9
20260506061524 50 0.0 0.0 0.00 0.00 0.00 87 1007.8
20260506061042 50 0.0 0.0 0.00 0.00 0.00 87 1007.8
20260506060522 49 0.0 0.0 0.00 0.00 0.00 87 1007.8
20260506051010 48 0.0 0.0 0.00 0.00 0.00 86 1007.8
20260506045007 48 0.0 0.0 0.00 0.00 0.00 86 1007.8
20260506044005 48 0.0 0.0 0.00 0.00 0.00 86 1007.8
20260506043003 48 0.0 0.0 0.00 0.00 0.00 86 1007.7
20260506042001 48 0.0 0.0 0.00 0.00 0.00 86 1007.7
20260506041459 48 0.0 0.0 0.00 0.00 0.00 86 1007.8
20260506040959 48 0.0 0.0 0.00 0.00 0.00 86 1007.8
20260506040457 48 0.0 0.0 0.00 0.00 0.00 86 1007.8
20260506040016 48 0.0 0.0 0.00 0.00 0.00 86 1007.8
20260506035456 48 0.0 0.0 0.00 0.00 0.00 85 1007.9
20260506034954 48 0.0 0.0 0.00 0.00 0.00 85 1007.9
20260506034454 48 0.0 0.0 0.00 0.00 0.00 85 1007.9
20260506033952 48 0.0 0.0 0.00 0.00 0.00 85 1007.9
20260506033452 48 0.0 0.0 0.00 0.00 0.00 86 1007.9
20260506032950 48 0.0 0.0 0.00 0.00 0.00 86 1007.9
20260506032450 48 0.0 0.0 0.00 0.00 0.00 85 1007.8
20260506031948 48 0.0 0.0 0.00 0.00 0.00 85 1007.8
20260506031508 48 0.0 0.0 0.00 0.00 0.00 85 1007.9
20260506030947 48 0.0 0.0 0.00 0.00 0.00 85 1007.9
20260506030445 48 0.0 0.0 0.00 0.00 0.00 85 1008.0
20260506025945 48 0.0 0.0 0.00 0.00 0.00 85 1008.0
20260506025503 48 0.0 0.0 0.00 0.00 0.00 85 1008.0
20260506024943 48 0.0 0.0 0.00 0.00 0.00 85 1008.0
20260506024441 49 0.0 0.0 0.00 0.00 0.00 85 1008.0
20260506023940 49 0.0 0.0 0.00 0.00 0.00 85 1008.0
20260506023440 49 0.0 0.0 0.00 0.00 0.00 85 1008.0
20260506022938 49 0.0 0.0 0.00 0.00 0.00 85 1008.0
20260506022438 49 0.0 0.0 0.00 0.00 0.00 85 1008.0
20260506021936 49 0.0 0.0 0.00 0.00 0.00 85 1008.0
20260506021436 49 0.0 0.0 0.00 0.00 0.00 85 1008.1
20260506020934 49 0.0 0.0 0.00 0.00 0.00 85 1008.1
20260506020432 49 0.0 0.0 0.00 0.00 0.00 85 1008.1
20260506020112 49 0.0 0.0 0.00 0.00 0.00 85 1008.1
20260506015430 49 0.0 0.0 0.00 0.00 0.00 85 1008.1
20260506014950 49 0.0 0.0 0.00 0.00 0.00 85 1008.1
20260506014428 49 0.0 0.0 0.00 0.00 0.00 85 1008.1
20260506013928 49 0.0 0.0 0.00 0.00 0.00 85 1008.1
20260506013427 50 0.0 0.0 0.00 0.00 0.00 85 1008.1
20260506012925 50 0.0 0.0 0.00 0.00 0.00 85 1008.1
20260506012445 50 0.0 0.0 0.00 0.00 0.00 85 1008.0
20260506011923 50 0.0 0.0 0.00 0.00 0.00 85 1008.0
20260506011423 50 0.0 0.0 0.00 0.00 0.00 85 1008.1
20260506010941 50 0.0 0.0 0.00 0.00 0.00 85 1008.1
20260506010421 50 0.0 0.0 0.00 0.00 0.00 85 1008.1
20260506005939 50 0.0 0.0 0.00 0.00 0.00 85 1008.1
20260506005418 50 0.0 0.0 0.00 0.00 0.00 85 1008.2
20260506004917 50 0.0 0.0 0.00 0.00 0.00 85 1008.2
20260506004416 50 0.0 0.0 0.00 0.00 0.00 85 1008.3
20260506003916 50 0.0 0.0 0.00 0.00 0.00 85 1008.3
20260506003414 51 0.0 0.0 0.00 0.00 0.00 85 1008.3
20260506002914 51 0.0 0.0 0.00 0.00 0.00 85 1008.3
20260506002413 51 0.0 0.0 0.00 0.00 0.00 85 1008.4
20260506001911 51 0.0 0.0 0.00 0.00 0.00 85 1008.4
20260506001411 51 0.0 0.0 0.00 0.00 0.00 85 1008.4
20260506000949 51 0.0 0.0 0.00 0.00 0.00 85 1008.4
20260506000409 51 0.0 0.0 0.00 0.00 0.00 85 1008.5
20260505235907 51 0.0 0.0 0.00 0.00 0.00 85 1008.5
20260505235407 51 0.0 0.0 0.00 0.00 0.00 85 1008.5
20260505234906 51 0.0 0.0 0.00 0.00 0.00 85 1008.5
20260505234404 51 0.0 0.0 0.00 0.00 0.00 85 1008.6
20260505233904 51 0.0 0.0 0.00 0.00 0.00 85 1008.6
20260505233422 51 0.0 0.0 0.00 0.00 0.00 85 1008.5
20260505232902 51 0.0 0.0 0.00 0.00 0.00 85 1008.5
20260505232400 51 0.0 0.0 0.00 0.00 0.00 85 1008.5
20260505231859 51 0.0 0.0 0.00 0.00 0.00 85 1008.5
20260505231359 51 0.0 0.0 0.00 0.00 0.00 85 1008.6
20260505230917 51 0.0 0.0 0.00 0.00 0.00 85 1008.6
20260505230357 52 0.0 0.0 0.00 0.00 0.00 84 1008.6
20260505225935 52 0.0 0.0 0.00 0.00 0.00 84 1008.6
20260505225355 52 0.0 0.0 0.00 0.00 0.00 84 1008.6
20260505224853 52 0.0 0.0 0.00 0.00 0.00 84 1008.6
20260505224353 52 0.0 0.0 0.00 0.00 0.00 84 1008.6
20260505223912 52 0.0 0.0 0.00 0.00 0.00 84 1008.6
20260505223410 52 0.0 0.0 0.00 0.00 0.00 84 1008.6
20260505222850 52 0.0 0.0 0.00 0.00 0.00 84 1008.6
20260505222348 52 0.0 0.0 0.00 0.00 0.00 84 1008.7
20260505221848 52 0.0 0.0 0.00 0.00 0.00 84 1008.7
20260505221347 52 0.0 0.0 0.00 0.00 0.00 84 1008.7
20260505220846 52 0.0 0.0 0.00 0.00 0.00 84 1008.7